Dewpoint
1 4 3 -2 -9 -9 -8 -9 -8 -8 -8 -8 -9 -9 -8 -9 -8 -8 -9 -8 -9 -9 -8 -8 -8 -8 -8 -8 -8 -8 -8 -8 -8 -8 -8 -9 -9 -9 -9 -8 -8 -9
0 4 5 0 -5 -6 -7 -7 -6 -6 -7 -7 -8 -8 -8 -8 -8 -9 -9 -8 -8 -8 -8 -8 -8 -8 -8 -8 -8 -8 -8 -8 -9 -9 -9 -9 -9 -10 -10 -10 -10 -10
-1 3 5 2 -2 -3 -4 -4 -4 -3 -2 -3 -4 -5 -6 -6 -6 -7 -7 -8 -8 -8 -8 -8 -8 -8 -8 -9 -8 -8 -9 -9 -9 -10 -9 -9 -10 -10 -10 -11 -11 -12
-1 1 4 4 2 -1 -2 -1 -1 -0 1 0 -1 -2 -4 -5 -5 -5 -5 -6 -6 -6 -7 -7 -7 -8 -7 -7 -8 -8 -9 -9 -9 -10 -10 -9 -10 -10 -11 -12 -12 -12
-2 -1 2 4 4 1 1 2 2 1 1 1 0 -1 -3 -4 -4 -4 -4 -3 -4 -4 -4 -4 -5 -6 -6 -7 -7 -7 -8 -8 -9 -9 -9 -10 -9 -9 -10 -10 -11 -11
-2 -1 2 4 5 3 2 3 3 3 2 2 1 -1 -2 -2 -2 -2 -2 -2 -3 -3 -3 -3 -3 -3 -4 -5 -4 -5 -6 -7 -7 -7 -8 -9 -9 -9 -9 -9 -9 -9
-3 -1 3 5 5 5 4 4 4 4 4 3 2 -0 -1 -1 -1 -0 -0 -0 -0 -0 -0 -0 -0 -1 -2 -2 -3 -3 -4 -4 -5 -6 -6 -7 -8 -8 -7 -8 -8 -8
1 2 3 5 5 5 5 5 5 5 4 4 3 2 1 -0 -0 0 1 1 1 1 1 2 2 2 1 0 -1 -1 -1 -1 -2 -3 -3 -4 -5 -6 -6 -7 -7 -8
6 5 4 5 5 4 5 5 5 5 5 5 5 4 3 2 2 2 2 2 2 2 2 2 3 3 3 3 3 2 2 2 2 2 1 0 -1 -2 -3 -4 -4 -5
7 6 5 6 5 4 5 5 5 6 6 6 6 5 5 4 4 4 4 4 4 4 4 4 3 3 3 3 3 4 4 4 4 4 4 3 3 2 0 -1 -1 -2
8 7 7 6 5 4 5 5 5 5 6 6 6 5 5 5 5 6 5 5 5 5 5 5 5 4 4 4 4 4 5 5 5 5 5 5 4 4 3 2 1 0
8 7 6 7 6 6 6 6 5 6 6 6 6 6 6 6 6 6 6 6 6 6 6 6 6 6 6 5 5 5 6 6 6 6 6 6 5 5 4 4 3 2
8 6 5 7 6 7 7 7 6 7 7 7 7 6 6 6 6 6 6 6 6 6 6 6 6 6 6 6 6 6 6 6 6 6 6 6 6 6 5 5 4 4
7 7 7 7 6 7 7 7 7 7 6 6 7 7 6 6 6 5 5 5 5 6 7 7 6 5 5 6 7 7 7 7 7 7 6 6 6 6 6 5 5 5
7 7 7 7 7 7 7 7 6 6 6 6 6 6 6 5 5 5 5 5 5 6 6 6 5 4 4 5 6 7 7 7 7 7 6 6 6 6 6 5 5 5
6 6 6 6 6 6 6 6 6 6 6 5 5 4 4 4 4 4 5 6 6 6 6 6 5 5 6 6 6 6 6 6 6 6 7 7 6 6 6 5 5 5
-0 -0 0 0 1 2 3 3 3 3 3 3 3 3 2 1 1 1 2 4 4 5 5 6 6 7 7 7 7 7 6 6 6 6 6 6 7 7 6 6 5 5
-4 -2 -3 -3 -1 0 -0 -1 -1 -0 0 1 1 2 1 1 0 1 2 4 4 4 3 4 5 5 6 6 6 6 7 7 7 7 7 7 7 7 7 6 6 5
-2 -2 -3 -2 0 0 -1 -1 -0 1 1 1 1 1 1 -0 0 1 2 4 5 5 5 4 4 3 2 2 3 4 6 7 7 7 8 8 8 7 7 7 6 6
-3 -3 -4 -3 -1 -2 -3 -2 -1 -0 0 -0 -2 -2 -2 -1 -1 -0 0 1 2 3 3 3 2 1 -2 -2 0 3 5 6 6 7 7 8 8 8 7 6 6 6
-5 -5 -6 -5 -4 -3 -3 -4 -6 -7 -7 -8 -10 -10 -8 -6 -6 -6 -5 -3 -1 1 1 1 -0 -1 -3 -4 -1 2 3 4 4 5 6 7 7 7 7 7 6 5
-6 -6 -5 -5 -5 -5 -6 -8 -11 -12 -13 -14 -15 -16 -17 -17 -17 -16 -13 -9 -6 -4 -2 -1 -0 1 1 1 1 2 2 2 3 3 4 5 6 6 7 6 6 5
-5 -5 -4 -4 -4 -5 -6 -9 -10 -11 -12 -12 -12 -13 -15 -17 -20 -18 -16 -15 -14 -12 -9 -7 -5 -2 1 2 2 3 3 3 2 2 2 4 5 6 6 6 5 4
-5 -5 -4 -3 -3 -4 -6 -7 -9 -9 -9 -9 -8 -9 -10 -11 -15 -17 -17 -16 -16 -14 -9 -7 -6 -4 -1 0 2 3 3 3 3 2 3 5 6 5 5 5 5 4
-4 -5 -5 -4 -4 -5 -6 -6 -6 -6 -6 -6 -6 -7 -7 -8 -10 -14 -16 -16 -15 -13 -9 -5 -3 -3 -1 1 2 3 3 3 3 2 4 6 6 5 4 4 4 3
-4 -4 -4 -4 -4 -4 -5 -5 -5 -5 -5 -6 -6 -5 -5 -5 -7 -10 -13 -13 -13 -11 -7 -3 -0 0 1 1 2 2 3 3 3 2 4 5 5 4 3 3 3 3
Wind_Speed
15 15 15 15 15 14 15 17 18 17 17 16 15 15 14 13 12 11 10 10 9 8 8 9 9 9 10 10 9 9 9 8 8 8 7 6 5 5 5 4 3 3
16 17 17 16 16 16 15 16 18 18 17 16 16 16 15 14 13 12 11 11 10 9 9 9 8 8 8 8 8 8 7 7 7 7 6 5 5 5 5 4 4 4
17 18 19 18 17 17 16 15 16 17 16 15 15 15 15 14 14 13 12 12 11 10 9 9 9 8 7 7 7 7 7 7 6 6 6 6 5 5 5 5 4 4
19 20 19 19 18 17 16 15 14 14 14 14 13 13 14 13 13 13 12 11 10 10 10 9 8 9 8 7 7 7 7 7 6 6 6 6 5 6 6 6 5 4
22 22 21 21 20 18 17 16 14 14 13 12 12 12 12 12 12 12 12 11 10 9 8 8 7 7 7 7 7 6 6 7 6 6 6 5 5 6 6 6 5 5
25 23 22 22 21 19 18 16 15 14 13 13 12 11 10 10 11 12 11 11 10 8 7 7 6 5 5 4 4 4 4 5 5 5 5 4 4 4 5 5 4 4
27 24 23 23 22 20 18 17 16 15 15 14 14 13 11 11 10 10 10 10 9 8 7 6 5 4 4 4 3 3 2 2 2 3 3 3 3 3 3 3 2 2
28 26 23 23 23 21 20 19 18 17 17 16 15 14 12 10 9 9 9 9 8 8 7 6 5 4 5 5 5 5 5 4 4 4 3 3 3 3 2 2 2 2
28 28 26 25 26 24 22 21 20 19 19 17 16 15 13 11 10 9 8 8 8 7 6 6 5 5 5 5 5 5 6 6 6 5 5 5 5 4 4 4 3 3
29 30 29 28 27 25 23 23 22 20 20 19 17 16 14 13 12 11 10 9 8 7 6 6 6 6 6 6 6 6 6 6 6 6 6 6 7 6 6 6 5 5
31 30 28 25 25 24 23 23 22 22 23 23 20 18 16 14 14 13 12 11 10 10 9 9 8 8 9 9 9 8 8 8 8 7 7 7 7 7 7 7 7 7
32 28 23 22 24 25 25 25 25 26 26 24 21 19 17 16 16 14 13 13 12 12 12 11 10 10 11 11 12 12 11 11 11 12 11 10 9 9 9 9 8 8
26 22 21 23 25 24 23 23 24 25 24 21 19 19 19 18 18 16 15 14 15 15 14 13 12 13 14 15 15 15 15 15 15 15 15 14 14 13 12 12 11 11
17 17 19 22 25 25 22 21 22 22 20 19 19 19 19 19 18 17 17 17 17 18 17 16 16 18 19 19 18 17 17 18 18 18 18 18 17 16 16 15 14 14
14 13 14 17 21 21 20 20 20 20 19 19 19 18 17 17 17 17 17 17 17 19 21 21 21 21 20 20 20 19 18 19 20 21 21 21 20 19 19 19 18 17
12 12 12 13 14 13 13 13 13 13 13 13 12 12 11 10 10 11 12 12 13 15 17 19 19 18 17 19 21 21 20 21 22 24 24 23 23 22 22 22 21 21
11 11 10 10 10 10 10 10 9 9 9 8 8 8 7 7 7 8 8 8 8 9 11 12 13 14 14 15 17 19 20 21 23 24 24 24 24 24 24 24 24 23
10 10 10 10 11 10 9 8 8 8 8 8 8 8 8 8 8 8 8 7 8 8 8 9 9 9 10 11 13 15 17 18 20 21 22 23 24 25 26 26 26 26
11 10 10 11 12 11 10 9 9 9 9 9 10 10 10 10 9 9 9 9 9 10 10 10 10 11 11 12 13 13 14 15 16 17 19 21 23 25 27 28 27 27
12 12 11 12 12 12 12 11 11 11 11 12 12 11 11 11 11 12 12 12 12 12 12 13 13 14 14 14 14 13 13 13 14 16 18 19 20 22 25 26 27 28
12 12 12 12 12 12 12 11 11 11 11 10 10 9 10 10 10 11 12 12 13 13 13 13 13 14 14 14 13 13 14 15 16 17 17 17 17 18 20 23 26 28
9 9 10 11 12 12 11 10 9 8 7 7 7 6 7 7 7 9 10 10 11 12 14 15 14 14 14 13 13 14 14 16 17 18 18 16 15 15 17 21 25 26
9 9 9 10 11 10 9 8 7 7 7 7 7 8 8 7 8 9 10 10 10 11 13 14 15 15 15 15 15 15 16 17 17 18 17 16 14 14 16 20 24 24
10 10 10 11 11 11 11 10 9 10 10 10 11 12 11 10 10 10 11 12 12 12 13 14 14 14 15 15 16 16 17 18 17 17 16 14 14 15 19 22 23 22
10 11 11 12 13 13 13 12 12 13 13 14 15 15 14 14 14 13 13 13 14 14 15 15 15 14 15 16 16 17 18 19 19 17 14 14 15 18 21 23 22 21
9 10 12 12 13 13 13 14 15 16 17 18 17 16 16 17 17 17 16 15 15 16 16 16 16 15 16 16 17 18 19 19 19 16 13 14 16 19 21 21 21 21
Wind_Direction
189 207 214 206 192 177 161 153 148 143 139 137 133 129 127 125 126 127 125 124 122 118 113 112 115 116 112 110 107 106 109 112 115 114 114 118 115 111 115 123 128 127
190 209 218 212 201 192 178 162 153 148 144 142 137 131 128 126 125 124 121 119 119 114 108 108 111 110 107 107 106 106 108 110 112 113 115 117 110 108 113 118 124 125
196 209 215 215 208 199 188 174 162 157 151 149 146 138 134 131 128 126 123 120 117 114 110 104 103 106 104 101 100 99 98 95 98 104 108 109 103 102 105 105 106 113
201 208 214 217 215 206 194 183 175 171 166 161 156 151 145 140 137 134 129 126 122 117 114 107 102 105 107 106 104 101 98 95 95 95 94 93 91 91 95 97 98 100
203 210 212 214 217 214 200 190 186 184 182 177 172 169 162 156 153 149 142 138 134 127 123 118 111 108 106 105 105 104 105 106 103 96 88 84 81 79 83 89 90 88
206 211 208 209 214 213 204 197 197 197 196 196 193 189 181 172 167 162 159 155 150 147 142 135 130 126 119 111 108 104 105 110 111 107 104 107 101 87 83 85 82 77
207 209 205 207 211 211 208 204 203 205 209 210 207 204 197 186 179 174 173 171 169 169 169 167 166 166 172 175 166 157 153 156 152 142 144 149 145 132 114 109 104 96
207 208 206 208 212 213 212 210 212 216 217 217 214 211 207 201 195 191 189 191 193 192 193 197 200 195 196 198 201 206 210 215 215 209 212 215 201 193 193 201 187 184
207 209 207 207 211 214 214 213 216 218 219 223 223 218 218 218 215 218 218 216 217 215 211 213 217 218 218 215 216 225 227 226 228 232 238 242 239 232 230 240 242 220
207 210 207 204 205 208 212 215 214 217 225 228 226 223 225 228 228 232 235 234 239 245 246 245 242 245 247 244 241 241 236 232 236 242 249 253 253 251 247 249 255 253
209 208 205 203 201 203 209 213 216 223 227 222 220 223 227 229 230 232 234 237 244 253 260 260 259 262 264 264 265 259 249 246 250 253 259 262 260 258 258 255 254 258
211 209 205 206 208 208 209 211 215 222 222 217 217 224 227 229 232 234 236 237 240 248 255 258 259 263 267 270 271 268 261 259 259 260 261 263 263 263 265 264 263 262
212 212 210 212 218 219 218 219 222 225 226 227 229 232 235 237 238 241 245 247 249 251 252 252 255 260 265 267 267 267 266 265 265 265 264 263 262 261 262 265 267 268
217 217 213 213 219 226 231 236 238 238 240 242 241 240 242 243 244 248 253 256 256 253 247 247 258 265 264 260 259 260 264 266 267 268 269 269 265 260 259 261 263 268
221 223 222 218 222 230 236 238 239 241 243 243 241 240 241 243 246 250 253 254 253 250 246 249 259 265 263 258 256 257 264 267 267 268 271 271 268 263 259 259 261 266
215 217 218 216 217 220 221 220 221 223 224 225 226 227 229 234 239 244 249 252 251 250 249 252 257 260 260 259 257 259 266 270 270 271 271 269 267 264 259 257 258 262
197 195 194 193 194 192 191 194 196 198 199 201 205 212 218 227 234 239 245 252 255 256 257 258 258 259 260 259 257 258 263 267 270 272 270 268 265 262 259 257 257 259
177 177 179 180 181 183 188 194 198 204 209 213 219 225 231 238 244 249 251 254 259 263 264 264 264 265 265 264 263 262 262 265 268 270 270 269 265 262 259 258 257 257
184 187 187 185 186 192 200 202 206 212 219 227 235 238 242 247 253 258 262 265 266 268 272 274 274 274 271 268 268 269 269 270 270 269 269 268 266 263 259 257 256 254
193 197 196 194 199 206 211 211 214 219 226 236 243 245 248 254 258 263 266 269 272 274 277 280 281 279 276 271 269 273 278 279 278 276 273 270 268 266 261 257 256 253
206 210 210 207 209 215 221 224 226 226 227 232 237 240 247 254 259 263 263 263 267 270 272 276 279 281 282 279 276 278 281 282 282 283 281 276 272 269 264 258 253 249
220 220 220 221 221 222 228 235 236 230 225 229 238 246 254 262 265 266 264 262 260 261 263 267 270 274 279 281 283 284 284 284 284 284 283 280 276 273 264 252 245 241
238 235 232 234 236 240 248 254 256 257 259 263 269 271 270 272 273 270 267 268 267 264 263 263 265 268 272 278 283 285 285 287 288 287 286 285 282 274 256 240 235 234
247 242 236 237 244 258 269 275 280 284 285 283 284 283 277 274 276 273 269 269 271 270 268 268 269 269 271 276 280 282 285 288 292 293 291 284 273 258 242 232 230 234
240 236 236 239 247 258 268 275 282 286 285 283 284 281 276 275 282 284 277 270 267 267 267 269 272 272 272 275 277 280 283 287 291 292 287 274 260 249 239 233 233 239
242 240 240 243 245 250 258 267 274 277 276 278 280 279 277 280 287 293 290 281 274 271 270 271 273 275 273 273 274 276 279 284 288 288 279 265 255 246 240 236 235 238
Height
1528 1531 1534 1535 1536 1535 1534 1534 1534 1534 1535 1536 1536 1537 1538 1538 1539 1539 1539 1539 1539 1539 1538 1538 1539 1538 1538 1538 1538 1538 1539 1539 1539 1539 1539 1539 1539 1539 1540 1540 1540 1540
1527 1530 1532 1534 1535 1535 1535 1535 1535 1535 1535 1536 1537 1537 1538 1538 1539 1539 1539 1539 1539 1539 1539 1539 1539 1539 1539 1539 1539 1540 1540 1540 1540 1540 1540 1540 1540 1540 1541 1541 1541 1541
1526 1528 1531 1533 1534 1535 1535 1535 1535 1535 1536 1537 1538 1538 1538 1538 1539 1539 1539 1539 1539 1539 1539 1539 1539 1539 1540 1540 1540 1541 1541 1541 1541 1541 1541 1541 1541 1541 1541 1542 1542 1542
1525 1527 1529 1531 1533 1534 1534 1534 1534 1535 1536 1537 1538 1539 1539 1539 1539 1538 1538 1539 1539 1539 1539 1539 1539 1539 1540 1540 1541 1541 1541 1542 1542 1542 1542 1542 1542 1542 1543 1543 1543 1543
1525 1526 1527 1529 1532 1533 1533 1533 1533 1534 1535 1537 1537 1538 1538 1538 1538 1538 1538 1538 1538 1538 1538 1538 1539 1539 1540 1540 1541 1541 1541 1542 1542 1542 1543 1543 1543 1543 1543 1544 1544 1544
1524 1525 1526 1528 1530 1532 1532 1532 1533 1533 1534 1536 1536 1537 1538 1538 1538 1537 1537 1537 1537 1538 1538 1538 1538 1539 1539 1540 1540 1541 1541 1541 1542 1542 1542 1543 1543 1543 1544 1544 1544 1544
1522 1523 1524 1526 1529 1531 1531 1532 1532 1533 1534 1535 1535 1536 1536 1537 1537 1537 1537 1537 1537 1537 1537 1538 1538 1538 1538 1539 1539 1540 1540 1540 1541 1542 1542 1542 1543 1543 1543 1544 1544 1544
1521 1523 1523 1525 1528 1529 1531 1532 1533 1533 1534 1534 1535 1535 1535 1536 1536 1536 1536 1536 1536 1536 1536 1536 1537 1537 1538 1538 1538 1538 1539 1539 1540 1540 1541 1541 1542 1542 1543 1543 1544 1544
1519 1520 1521 1523 1525 1528 1530 1532 1533 1534 1534 1534 1534 1534 1535 1535 1535 1535 1535 1535 1535 1535 1535 1535 1536 1536 1537 1537 1537 1537 1538 1538 1539 1539 1540 1540 1541 1541 1542 1542 1542 1543
1516 1517 1519 1521 1524 1526 1528 1531 1532 1534 1534 1534 1534 1534 1534 1534 1535 1535 1535 1535 1535 1534 1534 1534 1535 1535 1535 1536 1536 1536 1537 1537 1538 1538 1538 1539 1540 1540 1541 1541 1541 1542
1513 1515 1519 1522 1524 1525 1526 1528 1530 1531 1532 1532 1532 1532 1533 1533 1533 1534 1533 1533 1533 1533 1534 1534 1533 1533 1534 1534 1535 1535 1535 1536 1536 1537 1537 1538 1538 1539 1539 1540 1540 1541
1510 1515 1519 1522 1523 1523 1524 1525 1526 1527 1528 1528 1529 1530 1531 1532 1532 1532 1532 1532 1532 1532 1532 1532 1532 1532 1532 1533 1533 1534 1534 1534 1535 1536 1536 1537 1537 1538 1538 1539 1539 1540
1511 1515 1517 1519 1520 1521 1522 1523 1523 1524 1525 1526 1527 1528 1529 1530 1531 1531 1531 1531 1530 1530 1530 1530 1530 1530 1531 1531 1531 1532 1532 1532 1533 1534 1535 1535 1536 1536 1536 1537 1538 1538
1513 1515 1516 1518 1520 1520 1520 1521 1521 1522 1523 1524 1525 1526 1527 1529 1529 1529 1529 1529 1529 1529 1529 1529 1529 1529 1529 1529 1529 1530 1530 1530 1531 1531 1532 1533 1534 1534 1535 1535 1536 1536
1514 1515 1516 1517 1518 1519 1519 1520 1520 1520 1521 1522 1523 1524 1526 1526 1527 1527 1527 1526 1526 1526 1527 1527 1527 1527 1527 1527 1527 1527 1528 1528 1529 1529 1530 1530 1531 1532 1532 1533 1533 1534
1514 1514 1515 1516 1516 1517 1518 1518 1519 1519 1520 1521 1522 1523 1524 1524 1524 1524 1524 1524 1524 1524 1524 1525 1525 1525 1525 1525 1525 1525 1526 1526 1526 1527 1527 1528 1528 1529 1530 1530 1531 1532
1513 1513 1514 1515 1516 1516 1517 1518 1518 1519 1519 1520 1521 1521 1521 1521 1521 1522 1522 1522 1522 1522 1522 1522 1522 1523 1523 1523 1524 1524 1524 1524 1524 1524 1524 1525 1526 1526 1527 1528 1528 1529
1512 1513 1514 1515 1515 1516 1517 1517 1518 1518 1519 1519 1519 1520 1520 1520 1520 1520 1520 1521 1521 1520 1521 1521 1521 1521 1521 1521 1521 1521 1522 1522 1522 1522 1522 1523 1523 1524 1525 1525 1525 1526
1513 1513 1514 1515 1515 1516 1517 1517 1518 1518 1518 1518 1518 1519 1519 1518 1519 1519 1519 1519 1519 1519 1519 1519 1519 1519 1519 1519 1519 1519 1520 1520 1520 1520 1520 1520 1521 1521 1522 1522 1523 1523
1512 1513 1513 1514 1515 1515 1516 1516 1517 1517 1517 1517 1517 1517 1517 1517 1517 1517 1517 1518 1517 1517 1517 1517 1517 1517 1517 1517 1517 1517 1518 1518 1518 1518 1517 1518 1518 1518 1519 1520 1520 1521
1512 1512 1513 1513 1514 1514 1515 1515 1516 1516 1516 1516 1516 1516 1516 1516 1516 1516 1516 1516 1516 1516 1515 1515 1515 1515 1515 1515 1515 1515 1515 1515 1515 1515 1515 1515 1515 1516 1516 1517 1518 1519
1511 1511 1512 1512 1513 1513 1514 1514 1514 1514 1515 1515 1515 1515 1515 1515 1514 1514 1514 1514 1514 1514 1514 1514 1514 1514 1513 1513 1513 1513 1513 1513 1513 1513 1513 1513 1513 1513 1514 1515 1516 1518
1510 1510 1510 1511 1511 1512 1512 1512 1513 1513 1513 1513 1513 1513 1513 1513 1513 1512 1512 1512 1512 1512 1512 1512 1512 1512 1512 1511 1511 1511 1511 1511 1511 1510 1510 1510 1510 1511 1512 1513 1515 1516
1508 1509 1509 1509 1510 1510 1510 1510 1511 1511 1511 1511 1511 1511 1512 1511 1511 1510 1510 1510 1510 1510 1510 1510 1510 1510 1510 1509 1509 1509 1509 1509 1509 1509 1508 1508 1509 1509 1510 1512 1513 1513
1507 1507 1508 1508 1508 1508 1509 1509 1509 1509 1510 1510 1510 1510 1509 1509 1509 1509 1508 1508 1508 1508 1508 1508 1508 1508 1508 1508 1508 1508 1507 1507 1507 1507 1507 1507 1508 1508 1509 1510 1511 1512
1505 1506 1506 1506 1507 1507 1507 1508 1508 1508 1508 1508 1508 1507 1507 1507 1507 1507 1506 1506 1506 1506 1505 1505 1505 1506 1506 1506 1506 1506 1506 1506 1505 1505 1506 1506 1506 1507 1508 1509 1510 1510